| time (UTC) | temp C | wind direction | speed KPH | gust KPH | rain 1hr cm | rain 24hr cm | rain mn cm | humidity % | barometer mb |
| 20260505211536 | 32 | 117 | 1.6 | 22.5 | 0.00 | 0.00 | 0.00 | 30 | 1003.4 |
| 20260505211035 | 32 | 121 | 6.4 | 22.5 | 0.00 | 0.00 | 0.00 | 29 | 1003.4 |
| 20260505210534 | 32 | 130 | 6.4 | 16.1 | 0.00 | 0.00 | 0.00 | 30 | 1003.4 |
| 20260505210036 | 32 | 317 | 1.6 | 17.7 | 0.00 | 0.00 | 0.00 | 31 | 1003.6 |
| 20260505205532 | 32 | 23 | 4.8 | 17.7 | 0.00 | 0.00 | 0.00 | 31 | 1003.7 |
| 20260505205030 | 32 | 51 | 6.4 | 17.7 | 0.00 | 0.00 | 0.00 | 30 | 1003.8 |
| 20260505204533 | 32 | 4 | 3.2 | 19.3 | 0.00 | 0.00 | 0.00 | 30 | 1003.9 |
| 20260505204029 | 32 | 77 | 6.4 | 17.7 | 0.00 | 0.00 | 0.00 | 31 | 1004.1 |
| 20260505203528 | 32 | 47 | 8.0 | 17.7 | 0.00 | 0.00 | 0.00 | 31 | 1004.0 |
| 20260505203027 | 32 | 65 | 4.8 | 16.1 | 0.00 | 0.00 | 0.00 | 30 | 1004.1 |
| 20260505202527 | 32 | 105 | 3.2 | 22.5 | 0.00 | 0.00 | 0.00 | 30 | 1004.1 |
| 20260505202025 | 32 | 53 | 8.0 | 22.5 | 0.00 | 0.00 | 0.00 | 31 | 1004.4 |
| 20260505201525 | 31 | 56 | 4.8 | 17.7 | 0.00 | 0.00 | 0.00 | 31 | 1004.3 |
| 20260505201026 | 32 | 211 | 3.2 | 16.1 | 0.00 | 0.00 | 0.00 | 30 | 1004.4 |
| 20260505200524 | 31 | 109 | 6.4 | 16.1 | 0.00 | 0.00 | 0.00 | 32 | 1004.5 |
| 20260505200023 | 31 | 72 | 3.2 | 17.7 | 0.00 | 0.00 | 0.00 | 31 | 1004.6 |
| 20260505195521 | 31 | 51 | 4.8 | 17.7 | 0.00 | 0.00 | 0.00 | 32 | 1004.7 |
| 20260505195020 | 31 | 34 | 3.2 | 17.7 | 0.00 | 0.00 | 0.00 | 34 | 1004.7 |
| 20260505194519 | 31 | 46 | 4.8 | 19.3 | 0.00 | 0.00 | 0.00 | 34 | 1004.8 |
| 20260505194019 | 31 | 346 | 8.0 | 19.3 | 0.00 | 0.00 | 0.00 | 33 | 1004.9 |
| 20260505193518 | 30 | 72 | 3.2 | 20.9 | 0.00 | 0.00 | 0.00 | 35 | 1005.1 |
| 20260505193015 | 30 | 124 | 8.0 | 20.9 | 0.00 | 0.00 | 0.00 | 36 | 1005.4 |
| 20260505192519 | 30 | 85 | 6.4 | 19.3 | 0.00 | 0.00 | 0.00 | 35 | 1005.3 |
| 20260505192012 | 30 | 143 | 1.6 | 20.9 | 0.00 | 0.00 | 0.00 | 35 | 1005.5 |
| 20260505191515 | 30 | 103 | 6.4 | 16.1 | 0.00 | 0.00 | 0.00 | 36 | 1005.7 |
| 20260505191010 | 31 | 129 | 1.6 | 11.3 | 0.00 | 0.00 | 0.00 | 36 | 1005.7 |
| 20260505190509 | 30 | 126 | 0.0 | 16.1 | 0.00 | 0.00 | 0.00 | 37 | 1005.8 |
| 20260505190010 | 30 | 70 | 4.8 | 16.1 | 0.00 | 0.00 | 0.00 | 36 | 1006.0 |
| 20260505185510 | 30 | 155 | 4.8 | 16.1 | 0.00 | 0.00 | 0.00 | 36 | 1006.0 |
| 20260505185010 | 30 | 67 | 4.8 | 19.3 | 0.00 | 0.00 | 0.00 | 37 | 1006.2 |
| 20260505184509 | 29 | 150 | 4.8 | 17.7 | 0.00 | 0.00 | 0.00 | 37 | 1006.4 |
| 20260505184004 | 30 | 82 | 8.0 | 19.3 | 0.00 | 0.00 | 0.00 | 36 | 1006.5 |
| 20260505183503 | 29 | 91 | 6.4 | 19.3 | 0.00 | 0.00 | 0.00 | 38 | 1006.6 |
| 20260505183002 | 30 | 13 | 8.0 | 17.7 | 0.00 | 0.00 | 0.00 | 37 | 1006.7 |
| 20260505182502 | 30 | 64 | 1.6 | 16.1 | 0.00 | 0.00 | 0.00 | 37 | 1006.9 |
| 20260505182102 | 30 | 62 | 1.6 | 22.5 | 0.00 | 0.00 | 0.00 | 37 | 1006.8 |
| 20260505181559 | 29 | 44 | 4.8 | 22.5 | 0.00 | 0.00 | 0.00 | 37 | 1007.1 |
| 20260505181058 | 29 | 95 | 3.2 | 19.3 | 0.00 | 0.00 | 0.00 | 37 | 1007.1 |
| 20260505180556 | 29 | 117 | 0.0 | 19.3 | 0.00 | 0.00 | 0.00 | 38 | 1007.2 |
| 20260505180058 | 28 | 44 | 9.7 | 22.5 | 0.00 | 0.00 | 0.00 | 38 | 1007.3 |
| 20260505175556 | 28 | 99 | 11.3 | 22.5 | 0.00 | 0.00 | 0.00 | 38 | 1007.3 |
| 20260505175056 | 28 | 69 | 9.7 | 20.9 | 0.00 | 0.00 | 0.00 | 38 | 1007.6 |
| 20260505174601 | 28 | 115 | 6.4 | 16.1 | 0.00 | 0.00 | 0.00 | 38 | 1007.6 |
| 20260505174056 | 28 | 72 | 4.8 | 20.9 | 0.00 | 0.00 | 0.00 | 38 | 1007.8 |
| 20260505173554 | -17 | 0.0 | 0.0 | 0.00 | 0.00 | 0.00 | 1007.7 | ||
| 20260505173055 | -17 | 0.0 | 0.0 | 0.00 | 0.00 | 0.00 | 1007.9 | ||
| 20260505172553 | -17 | 0.0 | 0.0 | 0.00 | 0.00 | 0.00 | 1007.8 | ||
| 20260505172058 | -17 | 0.0 | 0.0 | 0.00 | 0.00 | 0.00 | 1007.9 | ||
| 20260505171552 | -17 | 0.0 | 0.0 | 0.00 | 0.00 | 0.00 | 1007.9 | ||
| 20260505171049 | -17 | 0.0 | 0.0 | 0.00 | 0.00 | 0.00 | 1007.9 | ||
| 20260505170548 | -17 | 0.0 | 0.0 | 0.00 | 0.00 | 0.00 | 1007.9 | ||
| 20260505170046 | -17 | 0.0 | 0.0 | 0.00 | 0.00 | 0.00 | 1008.0 | ||
| 20260505165545 | -17 | 0.0 | 0.0 | 0.00 | 0.00 | 0.00 | 1008.1 | ||
| 20260505165044 | -17 | 0.0 | 0.0 | 0.00 | 0.00 | 0.00 | 1008.1 | ||
| 20260505164543 | -17 | 0.0 | 0.0 | 0.00 | 0.00 | 0.00 | 1008.2 | ||
| 20260505164041 | -17 | 0.0 | 0.0 | 0.00 | 0.00 | 0.00 | 1008.2 | ||
| 20260505163540 | -17 | 0.0 | 0.0 | 0.00 | 0.00 | 0.00 | 1008.3 | ||
| 20260505163038 | -17 | 0.0 | 0.0 | 0.00 | 0.00 | 0.00 | 1008.2 | ||
| 20260505162538 | -17 | 0.0 | 0.0 | 0.00 | 0.00 | 0.00 | 1008.2 | ||
| 20260505162035 | -17 | 0.0 | 0.0 | 0.00 | 0.00 | 0.00 | 1008.2 | ||
| 20260505161534 | -17 | 0.0 | 0.0 | 0.00 | 0.00 | 0.00 | 1008.2 | ||
| 20260505161032 | -17 | 0.0 | 0.0 | 0.00 | 0.00 | 0.00 | 1008.3 | ||
| 20260505160531 | -17 | 0.0 | 0.0 | 0.00 | 0.00 | 0.00 | 1008.3 | ||
| 20260505153022 | -17 | 0.0 | 0.0 | 0.00 | 0.00 | 0.00 | 1008.3 | ||
| 20260505152519 | -17 | 0.0 | 0.0 | 0.00 | 0.00 | 0.00 | 1008.3 | ||
| 20260505152017 | -17 | 0.0 | 0.0 | 0.00 | 0.00 | 0.00 | 1008.3 | ||
| 20260505151516 | -17 | 0.0 | 0.0 | 0.00 | 0.00 | 0.00 | 1008.2 | ||
| 20260505151014 | -17 | 0.0 | 0.0 | 0.00 | 0.00 | 0.00 | 1008.3 | ||
| 20260505150520 | -17 | 0.0 | 0.0 | 0.00 | 0.00 | 0.00 | 1008.2 | ||
| 20260505140556 | -17 | 0.0 | 0.0 | 0.00 | 0.00 | 0.00 | 1008.2 | ||
| 20260505140112 | -17 | 0.0 | 0.0 | 0.00 | 0.00 | 0.00 | 1008.3 | ||
| 20260505125034 | -17 | 0.0 | 0.0 | 0.00 | 0.00 | 0.00 | 1007.9 | ||
| 20260505124536 | -17 | 0.0 | 0.0 | 0.00 | 0.00 | 0.00 | 1007.8 | ||
| 20260505124030 | -17 | 0.0 | 0.0 | 0.00 | 0.00 | 0.00 | 1007.9 | ||
| 20260505123529 | -17 | 0.0 | 0.0 | 0.00 | 0.00 | 0.00 | 1007.8 | ||
| 20260505123031 | -17 | 0.0 | 0.0 | 0.00 | 0.00 | 0.00 | 1007.7 | ||
| 20260505061537 | 23 | 342 | 4.8 | 20.9 | 0.00 | 0.00 | 0.00 | 39 | 1008.6 |
| 20260505061035 | 23 | 51 | 3.2 | 12.9 | 0.00 | 0.00 | 0.00 | 38 | 1008.6 |
| 20260505060540 | 23 | 272 | 4.8 | 11.3 | 0.00 | 0.00 | 0.00 | 38 | 1008.7 |
| 20260505060044 | 23 | 307 | 1.6 | 12.9 | 0.00 | 0.00 | 0.00 | 37 | 1008.7 |
| 20260505055535 | 23 | 74 | 4.8 | 14.5 | 0.00 | 0.00 | 0.00 | 37 | 1008.8 |
| 20260505055033 | 23 | 349 | 3.2 | 14.5 | 0.00 | 0.00 | 0.00 | 36 | 1008.8 |
| 20260505054534 | 23 | 311 | 1.6 | 12.9 | 0.00 | 0.00 | 0.00 | 35 | 1008.8 |
| 20260505054033 | 24 | 52 | 3.2 | 14.5 | 0.00 | 0.00 | 0.00 | 34 | 1008.8 |
| 20260505053632 | 24 | 305 | 4.8 | 14.5 | 0.00 | 0.00 | 0.00 | 33 | 1008.8 |
| 20260505053032 | 24 | 319 | 3.2 | 14.5 | 0.00 | 0.00 | 0.00 | 32 | 1008.8 |
| 20260505052531 | 23 | 335 | 4.8 | 14.5 | 0.00 | 0.00 | 0.00 | 32 | 1008.9 |
| 20260505052032 | 23 | 314 | 3.2 | 11.3 | 0.00 | 0.00 | 0.00 | 32 | 1008.9 |
| 20260505051533 | 23 | 330 | 1.6 | 6.4 | 0.00 | 0.00 | 0.00 | 33 | 1008.9 |
| 20260505051032 | 23 | 287 | 0.0 | 1.6 | 0.00 | 0.00 | 0.00 | 34 | 1009.0 |
| 20260505050532 | 23 | 287 | 0.0 | 3.2 | 0.00 | 0.00 | 0.00 | 34 | 1009.0 |
| 20260505041529 | 23 | 290 | 0.0 | 1.6 | 0.00 | 0.00 | 0.00 | 32 | 1008.6 |
| 20260505041029 | 23 | 292 | 0.0 | 1.6 | 0.00 | 0.00 | 0.00 | 32 | 1008.5 |
| 20260505040529 | 23 | 290 | 0.0 | 1.6 | 0.00 | 0.00 | 0.00 | 32 | 1008.5 |
| 20260505040028 | 23 | 290 | 0.0 | 1.6 | 0.00 | 0.00 | 0.00 | 32 | 1008.4 |
| 20260505035529 | 23 | 290 | 0.0 | 0.0 | 0.00 | 0.00 | 0.00 | 32 | 1008.4 |
| 20260505035029 | 23 | 290 | 0.0 | 0.0 | 0.00 | 0.00 | 0.00 | 33 | 1008.3 |
| 20260505034526 | 24 | 290 | 0.0 | 0.0 | 0.00 | 0.00 | 0.00 | 33 | 1008.2 |
| 20260505034027 | 24 | 290 | 0.0 | 0.0 | 0.00 | 0.00 | 0.00 | 32 | 1008.1 |
| 20260505033527 | 24 | 291 | 0.0 | 0.0 | 0.00 | 0.00 | 0.00 | 32 | 1008.1 |
| 20260505033027 | 25 | 291 | 0.0 | 1.6 | 0.00 | 0.00 | 0.00 | 32 | 1007.9 |
| 20260505032526 | 25 | 291 | 0.0 | 1.6 | 0.00 | 0.00 | 0.00 | 32 | 1007.9 |
| 20260505032026 | 25 | 292 | 0.0 | 1.6 | 0.00 | 0.00 | 0.00 | 32 | 1007.7 |
| 20260505031525 | 25 | 292 | 0.0 | 1.6 | 0.00 | 0.00 | 0.00 | 31 | 1007.6 |
| 20260505031025 | 25 | 293 | 0.0 | 1.6 | 0.00 | 0.00 | 0.00 | 31 | 1007.5 |
| 20260505030525 | 25 | 293 | 0.0 | 1.6 | 0.00 | 0.00 | 0.00 | 32 | 1007.5 |
| 20260505030025 | 25 | 293 | 0.0 | 1.6 | 0.00 | 0.00 | 0.00 | 32 | 1007.5 |
| 20260505025524 | 25 | 278 | 0.0 | 1.6 | 0.00 | 0.00 | 0.00 | 32 | 1007.4 |
| 20260505025023 | 25 | 278 | 0.0 | 1.6 | 0.00 | 0.00 | 0.00 | 32 | 1007.3 |
| 20260505024525 | 25 | 321 | 0.0 | 0.0 | 0.00 | 0.00 | 0.00 | 32 | 1007.2 |
| 20260505024023 | 25 | 325 | 0.0 | 1.6 | 0.00 | 0.00 | 0.00 | 33 | 1007.2 |
| 20260505023523 | 26 | 328 | 0.0 | 1.6 | 0.00 | 0.00 | 0.00 | 33 | 1007.0 |
| 20260505023025 | 26 | 295 | 0.0 | 0.0 | 0.00 | 0.00 | 0.00 | 34 | 1006.9 |
| 20260505022523 | 26 | 304 | 0.0 | 3.2 | 0.00 | 0.00 | 0.00 | 34 | 1006.9 |
| 20260505022027 | 26 | 300 | 0.0 | 6.4 | 0.00 | 0.00 | 0.00 | 34 | 1006.7 |
| 20260505021528 | 26 | 296 | 0.0 | 3.2 | 0.00 | 0.00 | 0.00 | 35 | 1006.6 |
| 20260505021024 | 26 | 279 | 0.0 | 1.6 | 0.00 | 0.00 | 0.00 | 35 | 1006.7 |
| 20260505020522 | 26 | 257 | 0.0 | 1.6 | 0.00 | 0.00 | 0.00 | 36 | 1006.6 |
| 20260505020022 | 26 | 257 | 0.0 | 1.6 | 0.00 | 0.00 | 0.00 | 35 | 1006.5 |
| 20260505015521 | 26 | 290 | 0.0 | 1.6 | 0.00 | 0.00 | 0.00 | 35 | 1006.4 |
| 20260505015024 | 26 | 289 | 0.0 | 1.6 | 0.00 | 0.00 | 0.00 | 35 | 1006.3 |
| 20260505014521 | 27 | 63 | 0.0 | 0.0 | 0.00 | 0.00 | 0.00 | 35 | 1006.2 |
| 20260505014029 | 27 | 63 | 0.0 | 0.0 | 0.00 | 0.00 | 0.00 | 34 | 1006.1 |
| 20260505013520 | 27 | 72 | 0.0 | 0.0 | 0.00 | 0.00 | 0.00 | 34 | 1006.1 |
| 20260505013021 | 27 | 73 | 0.0 | 0.0 | 0.00 | 0.00 | 0.00 | 33 | 1006.0 |
| 20260505012521 | 28 | 75 | 0.0 | 3.2 | 0.00 | 0.00 | 0.00 | 33 | 1005.9 |
| 20260505012021 | 28 | 76 | 0.0 | 3.2 | 0.00 | 0.00 | 0.00 | 32 | 1006.0 |
| 20260505011524 | 28 | 91 | 0.0 | 3.2 | 0.00 | 0.00 | 0.00 | 31 | 1005.9 |
| 20260505011021 | 28 | 90 | 0.0 | 3.2 | 0.00 | 0.00 | 0.00 | 31 | 1005.9 |
| 20260505010520 | 28 | 134 | 0.0 | 1.6 | 0.00 | 0.00 | 0.00 | 31 | 1005.8 |
| 20260505010020 | 28 | 83 | 0.0 | 4.8 | 0.00 | 0.00 | 0.00 | 31 | 1005.7 |
| 20260505005520 | 29 | 82 | 0.0 | 4.8 | 0.00 | 0.00 | 0.00 | 30 | 1005.8 |
| 20260505005019 | 29 | 77 | 0.0 | 0.0 | 0.00 | 0.00 | 0.00 | 30 | 1005.8 |
| 20260505004524 | 29 | 76 | 0.0 | 6.4 | 0.00 | 0.00 | 0.00 | 30 | 1005.7 |
| 20260505004019 | 30 | 59 | 0.0 | 6.4 | 0.00 | 0.00 | 0.00 | 30 | 1005.7 |
| 20260505003519 | 30 | 51 | 0.0 | 6.4 | 0.00 | 0.00 | 0.00 | 32 | 1005.7 |
| 20260505003019 | 30 | 95 | 0.0 | 4.8 | 0.00 | 0.00 | 0.00 | 31 | 1005.6 |
| 20260505002519 | 30 | 129 | 0.0 | 4.8 | 0.00 | 0.00 | 0.00 | 31 | 1005.6 |
| 20260505002019 | 30 | 155 | 0.0 | 4.8 | 0.00 | 0.00 | 0.00 | 30 | 1005.7 |
| 20260505001519 | 31 | 102 | 1.6 | 8.0 | 0.00 | 0.00 | 0.00 | 29 | 1005.5 |
| 20260505001018 | 31 | 143 | 0.0 | 8.0 | 0.00 | 0.00 | 0.00 | 29 | 1005.5 |
| 20260505000518 | 31 | 90 | 0.0 | 6.4 | 0.00 | 0.00 | 0.00 | 29 | 1005.6 |
| 20260505000024 | 31 | 42 | 1.6 | 6.4 | 0.00 | 0.00 | 0.00 | 29 | 1005.6 |
| 20260504235517 | 31 | 324 | 0.0 | 8.0 | 0.00 | 0.00 | 0.00 | 29 | 1005.6 |
| 20260504235017 | 31 | 94 | 1.6 | 8.0 | 0.00 | 0.00 | 0.00 | 29 | 1005.7 |
| 20260504234517 | 31 | 106 | 0.0 | 9.7 | 0.00 | 0.00 | 0.00 | 30 | 1005.7 |
| 20260504234016 | 31 | 98 | 4.8 | 9.7 | 0.00 | 0.00 | 0.00 | 31 | 1005.7 |
| 20260504233515 | 31 | 136 | 0.0 | 9.7 | 0.00 | 0.00 | 0.00 | 31 | 1005.8 |
| 20260504233016 | 31 | 145 | 0.0 | 9.7 | 0.00 | 0.00 | 0.00 | 30 | 1005.8 |
| 20260504232515 | 31 | 65 | 1.6 | 9.7 | 0.00 | 0.00 | 0.00 | 31 | 1005.8 |
| 20260504232015 | 31 | 112 | 1.6 | 8.0 | 0.00 | 0.00 | 0.00 | 31 | 1005.8 |
| 20260504231514 | 31 | 92 | 0.0 | 6.4 | 0.00 | 0.00 | 0.00 | 31 | 1005.8 |
| 20260504231014 | 31 | 146 | 0.0 | 9.7 | 0.00 | 0.00 | 0.00 | 31 | 1005.9 |
| 20260504230513 | 31 | 58 | 0.0 | 11.3 | 0.00 | 0.00 | 0.00 | 31 | 1006.0 |
| 20260504230014 | 31 | 42 | 1.6 | 8.0 | 0.00 | 0.00 | 0.00 | 31 | 1005.9 |
| 20260504225512 | 31 | 87 | 0.0 | 9.7 | 0.00 | 0.00 | 0.00 | 30 | 1005.9 |
| 20260504225017 | 31 | 92 | 1.6 | 14.5 | 0.00 | 0.00 | 0.00 | 30 | 1006.0 |
| 20260504224513 | 32 | 93 | 1.6 | 14.5 | 0.00 | 0.00 | 0.00 | 30 | 1006.0 |
| 20260504224011 | 31 | 47 | 1.6 | 12.9 | 0.00 | 0.00 | 0.00 | 30 | 1006.1 |
| 20260504223511 | 31 | 198 | 0.0 | 6.4 | 0.00 | 0.00 | 0.00 | 30 | 1006.1 |
| 20260504223010 | 31 | 32 | 0.0 | 8.0 | 0.00 | 0.00 | 0.00 | 30 | 1006.2 |
| 20260504222509 | 31 | 65 | 0.0 | 17.7 | 0.00 | 0.00 | 0.00 | 29 | 1006.2 |
| 20260504222012 | 31 | 24 | 4.8 | 17.7 | 0.00 | 0.00 | 0.00 | 30 | 1006.3 |
| 20260504221508 | 31 | 110 | 0.0 | 8.0 | 0.00 | 0.00 | 0.00 | 29 | 1006.3 |
| 20260504221007 | 31 | 62 | 0.0 | 14.5 | 0.00 | 0.00 | 0.00 | 29 | 1006.5 |
| 20260504220510 | 31 | 232 | 3.2 | 14.5 | 0.00 | 0.00 | 0.00 | 29 | 1006.5 |
| 20260504220005 | 31 | 128 | 0.0 | 11.3 | 0.00 | 0.00 | 0.00 | 29 | 1006.6 |
| 20260504215505 | 32 | 323 | 3.2 | 11.3 | 0.00 | 0.00 | 0.00 | 28 | 1006.7 |
| 20260504215006 | 32 | 84 | 1.6 | 9.7 | 0.00 | 0.00 | 0.00 | 29 | 1006.8 |
| 20260504214506 | 31 | 46 | 0.0 | 12.9 | 0.00 | 0.00 | 0.00 | 28 | 1006.9 |
| 20260504214005 | 31 | 105 | 1.6 | 12.9 | 0.00 | 0.00 | 0.00 | 28 | 1007.0 |
| 20260504213502 | 31 | 37 | 1.6 | 19.3 | 0.00 | 0.00 | 0.00 | 29 | 1007.0 |
| 20260504213002 | 31 | 105 | 6.4 | 19.3 | 0.00 | 0.00 | 0.00 | 29 | 1007.2 |
| 20260504212501 | 31 | 102 | 9.7 | 17.7 | 0.00 | 0.00 | 0.00 | 29 | 1007.1 |
| 20260504212102 | 31 | 354 | 3.2 | 12.9 | 0.00 | 0.00 | 0.00 | 29 | 1007.2 |